sat.trackr.live / text

‹ back to catalog

STARLINK-4399

NORAD 53469 · 2022-099E

PAYLOAD ACTIVE UNKNOWN

§ Identity

Operator
Country
US
Launch date
2022-08-12
Launch site
AFWTR
Launch vehicle
Mass (kg)
RCS (m²)

Purposes: comms

External: N2YO · Heavens-Above · Gunter

§ Orbital elements

Epoch: 2026-05-24T21:35:55.921056Z

Period
95.64 min
Inclination
97.4490°
Eccentricity
0.0001412
Mean motion
15.05646998 rev/d
Perigee alt
548.5 km
Apogee alt
550.5 km
Semi-major
6,927.7 km
B*
5.5792e-5
RAAN
265.9856°
Arg perigee
128.9127°
Mean anomaly
231.2226°
Rev number
20,751

§ Raw data

STARLINK-43991 53469U 22099E   26144.89995279  .00000746  00000+0  55792-4 0  99922 53469  97.4490 265.9856 0001412 128.9127 231.2226 15.05646998207517

JSON: /api/v1/satellites/53469 · /tle

For live sub-satellite position, see the globe view (requires WebGL).

§ Visibility from observer

Set your observer location to see the next 7 days of passes ≥ 10°. The values pass through the URL so the page stays shareable.

No JS? Fill the form by hand. The geolocation button needs JavaScript.